カタログに戻る

FENGYUN 1C DEB

運用中PO
NORAD 38725·DEBRIS·🇨🇳 China

打ち上げ May 10, 1999 から Taiyuan Satellite Launch Center

Loading…

次のパス (今後24時間)

TLE

経年Source: Space-Track

元期: Sep 7, 2026, 20:40 UTC

1 38725U 99025ETS 26250.86158867  .00006024  00000-0  16656-2 0  9992
2 38725  98.8859  33.2100 0033403 173.7628 186.3986 14.46750597772397

AllMySatでFENGYUN 1C DEBをリアルタイム追跡

Download on the App Store